SCP
0 0 0 -0 -0 -0 -0 -0 0 -0 -0 -0 0 -0 -0 0 -0 -0 -0 -0 -0 -0 -0 -0 -0 -0 -0 -0 -0 -0 -0 -0
0 0 0 0 0 -0 0 0 0 -0 0 0 -0 -0 -0 -0 -0 -0 -0 -0 -0 -0 -0 -0 -0 -0 -0 -0 -0 -0 -0 -0
0 0 0 0 0 0 -0 0 -0 -0 0 0 -0 -0 -0 -0 -0 -0 -0 -0 -0 -0 -0 -0 -0 -0 -0 -0 -0 -0 -0 -0
0 0 -0 -0 -0 0 -0 -0 0 0 0 0 -0 0 0 -0 -0 -0 -0 -0 -0 -0 -0 -0 -0 -0 -0 -0 -0 -0 -0 -0
0 0 0 0 -0 0 0 0 0 0 0 -0 0 -0 0 -0 -0 -0 -0 -0 0 -0 -0 -0 -0 -0 -0 -0 -0 -0 -0 0
0 0 0 0 -0 0 0 0 0 0 -0 -0 -0 -0 -0 -0 -0 -0 -0 -0 -0 -0 -0 -0 -0 -0 -0 -0 -0 -0 -0 -0
0 0 0 0 -0 -0 0 0 0 -0 -0 -0 -0 -0 -0 -0 -0 -0 -0 -0 -0 -0 -0 -0 -0 -0 -0 -0 -0 -0 -0 0
0 0 0 0 -0 -0 -0 -0 -0 -0 0 -0 -0 -0 -0 -0 -0 -0 -0 -0 -0 -0 -0 -0 -0 -0 -0 -0 -0 -0 0 0
-0 0 0 0 0 -0 -0 -0 -0 -0 0 -0 -0 -0 -0 0 0 -0 -0 -0 -0 -0 -0 -0 -0 -0 0 0 0 0 0 0
-0 -0 0 0 0 0 -0 -0 -0 -0 -0 -0 -0 -0 -0 -0 0 0 0 -0 -0 -0 -0 -0 -0 0 0 0 0 0 0 0
-0 -0 0 0 0 0 0 -0 -0 -0 -0 -0 -0 -0 0 0 0 0 0 -0 -0 -0 -0 -0 -0 0 0 0 -0 0 0 0
-0 -0 -0 0 0 0 0 0 0 0 -0 -0 -0 -0 -0 -0 -0 -0 -0 -0 -0 -0 0 0 0 -0 -0 -0 -0 0 0 0
-0 -0 -0 0 0 0 0 0 0 0 0 -0 -0 -0 -0 -0 -0 -0 -0 -0 -0 -0 -0 -0 -0 0 0 0 0 0 0 0
-0 -0 0 0 -0 0 0 0 0 0 0 -0 -0 -0 -0 -0 0 0 0 -0 -0 0 0 0 0 0 0 0 0 0 0 0
0 0 0 0 0 0 0 0 0 -0 0 0 -0 -0 -0 -0 0 0 0 0 0 0 0 0 0 0 0 0 0 0 0 0
0 0 0 0 0 0 0 0 0 0 0 0 0 -0 0 0 0 0 0 0 0 0 0 0 0 0 0 0 0 0 1 0
0 0 0 0 0 0 0 0 0 0 0 0 0 0 0 0 0 0 0 0 0 0 -0 0 0 1 1 1 1 0 0 0
0 0 0 0 0 0 0 0 0 0 0 0 0 0 1 1 1 1 0 0 0 -0 -0 0 1 1 1 1 1 0 0 0
0 0 0 0 0 0 0 0 0 0 0 0 0 -0 1 2 2 2 1 0 0 0 -0 0 0 2 1 1 0 0 0 0
0 0 0 0 0 0 0 0 0 0 0 0 0 0 -0 1 1 2 1 1 0 0 0 0 0 1 1 1 1 1 0 0
Wind_Speed_500mb
4 3 2 5 7 7 5 10 14 5 10 7 9 4 33 42 47 51 48 42 36 31 28 24 24 26 27 27 27 27 28 28
4 4 1 6 12 1 13 8 6 9 8 5 2 23 25 45 48 49 47 43 36 31 27 24 24 26 26 26 25 26 26 27
1 5 5 7 11 7 14 5 6 4 5 7 17 16 33 37 44 47 47 42 36 31 27 24 23 24 24 24 24 25 25 25
2 6 7 11 8 11 8 7 5 8 12 10 14 23 32 35 43 44 43 41 36 32 28 26 24 23 22 22 22 23 24 24
4 6 7 2 6 15 9 2 4 13 12 8 25 30 29 38 42 41 41 39 36 33 30 28 25 22 21 21 20 20 20 21
6 0 8 4 10 11 7 7 10 14 9 12 35 40 38 43 42 43 44 40 37 35 32 30 27 25 22 20 19 18 18 18
4 4 12 6 11 11 13 10 8 11 4 11 40 47 50 48 46 45 46 43 40 38 35 32 29 27 25 21 20 19 18 17
3 4 9 14 8 9 12 15 15 12 12 23 42 49 52 53 51 50 48 46 43 39 37 36 34 31 27 25 22 19 17 16
7 11 3 4 6 9 12 15 19 26 28 39 48 51 50 50 48 46 45 46 44 42 40 39 36 33 29 27 24 21 19 17
4 7 2 7 2 9 20 12 14 22 33 50 56 52 49 50 49 46 45 42 42 42 42 39 35 33 29 26 23 19 16 16
10 12 15 15 17 15 25 20 9 27 38 55 59 53 47 46 46 43 42 39 40 40 39 38 36 32 29 25 19 16 17 16
11 10 12 12 5 7 20 24 23 24 40 56 64 60 55 56 53 50 44 40 36 35 35 36 35 32 27 25 19 17 17 14
14 9 11 16 8 13 13 13 26 36 40 49 66 59 62 58 56 58 53 42 37 33 35 36 37 34 32 30 24 21 21 20
12 11 5 18 32 22 16 13 20 32 37 50 59 62 61 61 60 62 57 53 46 43 40 39 38 36 35 36 32 28 27 28
8 2 3 15 16 13 10 17 21 37 46 49 55 60 60 63 65 64 60 59 57 53 52 47 44 41 37 39 38 37 34 34
12 5 3 5 21 25 26 17 30 34 50 52 55 68 62 65 68 67 65 61 62 61 59 55 51 47 46 45 41 38 39 40
15 17 15 28 24 25 26 25 33 34 46 57 63 74 68 72 72 68 70 68 65 66 69 65 62 61 54 50 44 41 37 21
18 12 9 22 29 30 25 22 27 39 46 60 74 65 77 80 79 76 75 74 71 72 73 73 64 65 64 56 48 41 36 29
18 10 20 24 25 20 11 15 23 34 42 46 65 72 74 81 80 72 75 77 74 72 71 74 67 70 67 57 48 44 40 38
18 8 13 4 17 20 17 17 20 30 34 42 52 57 64 77 78 71 70 66 61 60 65 71 70 71 67 65 58 50 44 35
Wind_Direction_500mb
20 75 100 266 257 266 55 90 46 87 54 10 357 198 150 154 155 162 165 162 160 155 152 151 144 139 135 133 130 125 121 117
318 218 256 284 329 45 116 95 36 93 98 46 39 137 151 157 159 162 165 164 162 158 155 154 147 144 139 135 130 125 122 122
60 253 284 292 302 159 110 40 48 33 100 87 135 138 151 160 162 165 168 168 166 161 161 158 154 151 146 141 134 128 128 129
298 291 295 297 258 161 123 346 60 121 130 148 173 158 157 166 166 169 174 172 169 166 168 165 164 160 154 146 141 135 137 139
256 328 306 276 188 184 135 224 154 152 157 197 181 168 164 167 169 173 179 178 175 175 175 174 171 168 165 158 153 147 146 147
220 68 49 85 174 133 159 187 173 181 185 188 185 172 167 167 173 179 183 184 183 182 182 183 179 178 177 172 166 164 160 159
206 273 7 19 210 169 156 153 191 201 243 210 179 172 167 169 176 185 189 191 188 188 188 189 189 187 186 186 183 182 179 177
199 238 357 324 258 203 182 175 207 187 208 172 178 174 176 176 181 188 192 195 194 192 192 194 195 196 194 197 200 196 197 195
225 252 272 300 230 201 223 214 216 204 187 179 182 180 187 189 187 190 193 198 196 196 197 198 200 200 202 206 209 207 209 210
162 193 241 276 240 241 229 238 289 231 199 190 188 186 186 195 195 191 196 201 201 202 202 202 204 206 208 210 216 218 222 227
251 256 262 275 256 264 248 204 235 189 195 197 198 194 192 196 199 197 199 202 206 207 211 208 201 205 209 213 218 225 229 238
278 245 240 246 303 203 262 201 210 201 202 203 204 202 199 204 202 203 201 199 202 206 209 212 210 207 205 210 215 220 221 226
233 244 236 188 242 225 230 165 203 208 205 206 211 211 213 212 212 210 209 205 205 203 205 207 212 207 202 205 214 216 215 219
216 203 221 200 252 235 224 190 213 220 211 209 212 220 225 224 223 225 216 213 213 216 213 209 208 209 205 209 215 222 227 231
261 280 223 217 238 252 337 215 227 230 222 214 219 222 230 234 234 234 231 223 221 223 224 219 214 212 213 216 221 229 236 244
242 105 20 256 266 278 286 280 268 235 227 224 221 227 230 233 239 241 241 236 234 233 233 227 223 216 214 218 227 234 244 249
267 268 296 277 267 269 276 252 258 234 224 228 229 233 233 239 241 240 244 241 237 233 233 228 223 218 220 223 229 242 259 272
288 280 240 273 279 283 277 261 250 241 222 227 232 226 232 237 239 239 243 245 242 238 233 228 225 223 223 226 227 241 248 271
275 299 250 272 265 259 241 260 266 257 248 236 235 235 231 234 235 233 236 243 243 241 232 224 224 221 221 223 224 228 235 242
265 267 269 320 282 259 264 259 251 259 247 243 231 232 236 237 236 237 241 243 239 233 226 219 223 222 223 225 222 228 233 233
Wind_Speed_850mb
4 3 2 5 7 7 5 10 14 5 10 7 9 4 33 42 47 51 48 42 36 31 28 24 24 26 27 27 27 27 28 28
4 4 1 6 12 1 13 8 6 9 8 5 2 23 25 45 48 49 47 43 36 31 27 24 24 26 26 26 25 26 26 27
1 5 5 7 11 7 14 5 6 4 5 7 17 16 33 37 44 47 47 42 36 31 27 24 23 24 24 24 24 25 25 25
2 6 7 11 8 11 8 7 5 8 12 10 14 23 32 35 43 44 43 41 36 32 28 26 24 23 22 22 22 23 24 24
4 6 7 2 6 15 9 2 4 13 12 8 25 30 29 38 42 41 41 39 36 33 30 28 25 22 21 21 20 20 20 21
6 0 8 4 10 11 7 7 10 14 9 12 35 40 38 43 42 43 44 40 37 35 32 30 27 25 22 20 19 18 18 18
4 4 12 6 11 11 13 10 8 11 4 11 40 47 50 48 46 45 46 43 40 38 35 32 29 27 25 21 20 19 18 17
3 4 9 14 8 9 12 15 15 12 12 23 42 49 52 53 51 50 48 46 43 39 37 36 34 31 27 25 22 19 17 16
7 11 3 4 6 9 12 15 19 26 28 39 48 51 50 50 48 46 45 46 44 42 40 39 36 33 29 27 24 21 19 17
4 7 2 7 2 9 20 12 14 22 33 50 56 52 49 50 49 46 45 42 42 42 42 39 35 33 29 26 23 19 16 16
10 12 15 15 17 15 25 20 9 27 38 55 59 53 47 46 46 43 42 39 40 40 39 38 36 32 29 25 19 16 17 16
11 10 12 12 5 7 20 24 23 24 40 56 64 60 55 56 53 50 44 40 36 35 35 36 35 32 27 25 19 17 17 14
14 9 11 16 8 13 13 13 26 36 40 49 66 59 62 58 56 58 53 42 37 33 35 36 37 34 32 30 24 21 21 20
12 11 5 18 32 22 16 13 20 32 37 50 59 62 61 61 60 62 57 53 46 43 40 39 38 36 35 36 32 28 27 28
8 2 3 15 16 13 10 17 21 37 46 49 55 60 60 63 65 64 60 59 57 53 52 47 44 41 37 39 38 37 34 34
12 5 3 5 21 25 26 17 30 34 50 52 55 68 62 65 68 67 65 61 62 61 59 55 51 47 46 45 41 38 39 40
15 17 15 28 24 25 26 25 33 34 46 57 63 74 68 72 72 68 70 68 65 66 69 65 62 61 54 50 44 41 37 21
18 12 9 22 29 30 25 22 27 39 46 60 74 65 77 80 79 76 75 74 71 72 73 73 64 65 64 56 48 41 36 29
18 10 20 24 25 20 11 15 23 34 42 46 65 72 74 81 80 72 75 77 74 72 71 74 67 70 67 57 48 44 40 38
18 8 13 4 17 20 17 17 20 30 34 42 52 57 64 77 78 71 70 66 61 60 65 71 70 71 67 65 58 50 44 35
Wind_Direction_850mb
20 75 100 266 257 266 55 90 46 87 54 10 357 198 150 154 155 162 165 162 160 155 152 151 144 139 135 133 130 125 121 117
318 218 256 284 329 45 116 95 36 93 98 46 39 137 151 157 159 162 165 164 162 158 155 154 147 144 139 135 130 125 122 122
60 253 284 292 302 159 110 40 48 33 100 87 135 138 151 160 162 165 168 168 166 161 161 158 154 151 146 141 134 128 128 129
298 291 295 297 258 161 123 346 60 121 130 148 173 158 157 166 166 169 174 172 169 166 168 165 164 160 154 146 141 135 137 139
256 328 306 276 188 184 135 224 154 152 157 197 181 168 164 167 169 173 179 178 175 175 175 174 171 168 165 158 153 147 146 147
220 68 49 85 174 133 159 187 173 181 185 188 185 172 167 167 173 179 183 184 183 182 182 183 179 178 177 172 166 164 160 159
206 273 7 19 210 169 156 153 191 201 243 210 179 172 167 169 176 185 189 191 188 188 188 189 189 187 186 186 183 182 179 177
199 238 357 324 258 203 182 175 207 187 208 172 178 174 176 176 181 188 192 195 194 192 192 194 195 196 194 197 200 196 197 195
225 252 272 300 230 201 223 214 216 204 187 179 182 180 187 189 187 190 193 198 196 196 197 198 200 200 202 206 209 207 209 210
162 193 241 276 240 241 229 238 289 231 199 190 188 186 186 195 195 191 196 201 201 202 202 202 204 206 208 210 216 218 222 227
251 256 262 275 256 264 248 204 235 189 195 197 198 194 192 196 199 197 199 202 206 207 211 208 201 205 209 213 218 225 229 238
278 245 240 246 303 203 262 201 210 201 202 203 204 202 199 204 202 203 201 199 202 206 209 212 210 207 205 210 215 220 221 226
233 244 236 188 242 225 230 165 203 208 205 206 211 211 213 212 212 210 209 205 205 203 205 207 212 207 202 205 214 216 215 219
216 203 221 200 252 235 224 190 213 220 211 209 212 220 225 224 223 225 216 213 213 216 213 209 208 209 205 209 215 222 227 231
261 280 223 217 238 252 337 215 227 230 222 214 219 222 230 234 234 234 231 223 221 223 224 219 214 212 213 216 221 229 236 244
242 105 20 256 266 278 286 280 268 235 227 224 221 227 230 233 239 241 241 236 234 233 233 227 223 216 214 218 227 234 244 249
267 268 296 277 267 269 276 252 258 234 224 228 229 233 233 239 241 240 244 241 237 233 233 228 223 218 220 223 229 242 259 272
288 280 240 273 279 283 277 261 250 241 222 227 232 226 232 237 239 239 243 245 242 238 233 228 225 223 223 226 227 241 248 271
275 299 250 272 265 259 241 260 266 257 248 236 235 235 231 234 235 233 236 243 243 241 232 224 224 221 221 223 224 228 235 242
265 267 269 320 282 259 264 259 251 259 247 243 231 232 236 237 236 237 241 243 239 233 226 219 223 222 223 225 222 228 233 233